Sheldon, IA

6:42 AM CST on February 24, 2017 (GMT -0600)
Sheldon Municipal

Weather History for KSHL - May, 2014

Change the Weather History Date:

Wednesday, May 7, 2014

  Actual Average Record
Temperature  
Mean Temperature 70 °F -  
Max Temperature 89 °F 69 °F 90 °F (1990)
Min Temperature 51 °F 43 °F 26 °F (1989)
Cooling Degree Days 5    
Growing Degree Days 20 (Base 50)    
Moisture  
Dew Point 49 °F    
Average Humidity 54    
Maximum Humidity 72    
Minimum Humidity 33    
Precipitation  
Precipitation 0.00 in - - ()
Sea Level Pressure  
Sea Level Pressure 29.56 in    
Wind  
Wind Speed 19 mph (East)    
Max Wind Speed 31 mph    
Max Gust Speed 40 mph    
Visibility 10 miles    
Events      
Averages and records for this station are not official NWS values.
T = Trace of Precipitation, MM = Missing Value Source: NWS Daily Summary

Daily Weather History Graph

Daily Weather History Graph

Search for Another Location

Airport or City:

Trip Planner

Search our weather history database for the weather conditions in past years. The results will help you decide how hot, cold, wet, or windy it might be!

Date:

Astronomy

May. 07, 2014 Rise Set
Actual Time 6:08 AM CDT 8:31 PM CDT
Civil Twilight 5:36 AM CDT 9:03 PM CDT
Nautical Twilight 4:57 AM CDT 9:43 PM CDT
Astronomical Twilight 4:13 AM CDT 10:27 PM CDT
Moon 1:26 PM CDT (5/7) 2:20 AM CDT (5/7)
Length of Visible Light 15h 26m
Length of Day
14h 23m
First Quarter, 55% of the Moon is Illuminated
May 7
First Quarter
May 14
Full
May 21
Last Quarter
May 28
New
Jun 5
First Quarter

Hourly Weather History & Observations

Time (CDT) Temp. Heat Index Dew Point Humidity Pressure Visibility Wind Dir Wind Speed Gust Speed Precip Events Conditions
12:15 AM 60.8 °F - 41.0 °F 48% 29.62 in 10.0 mi ESE 21.9 mph 27.6 mph N/A   Overcast
12:35 AM 59.0 °F - 41.0 °F 51% 29.62 in 10.0 mi ESE 23.0 mph 29.9 mph N/A   Overcast
1:15 AM 59.0 °F - 41.0 °F 51% 29.62 in 10.0 mi ESE 19.6 mph 31.1 mph N/A   Overcast
1:35 AM 57.2 °F - 41.0 °F 55% 29.61 in 10.0 mi ESE 21.9 mph 28.8 mph N/A   Overcast
1:55 AM 57.2 °F - 39.2 °F 51% 29.61 in 10.0 mi ESE 20.7 mph 27.6 mph N/A   Mostly Cloudy
2:15 AM 57.2 °F - 39.2 °F 51% 29.60 in 10.0 mi East 18.4 mph 26.5 mph N/A   Mostly Cloudy
2:35 AM 55.4 °F - 39.2 °F 54% 29.59 in 10.0 mi East 19.6 mph 25.3 mph N/A   Overcast
2:55 AM 55.4 °F - 39.2 °F 54% 29.59 in 10.0 mi East 18.4 mph 26.5 mph N/A   Mostly Cloudy
3:15 AM 55.4 °F - 41.0 °F 58% 29.62 in 10.0 mi ENE 15.0 mph 21.9 mph N/A   Overcast
3:35 AM 55.4 °F - 41.0 °F 58% 29.60 in 10.0 mi ENE 13.8 mph 20.7 mph N/A   Mostly Cloudy
3:55 AM 55.4 °F - 41.0 °F 58% 29.60 in 10.0 mi East 18.4 mph - N/A   Mostly Cloudy
4:15 AM 53.6 °F - 41.0 °F 62% 29.59 in 10.0 mi East 18.4 mph 25.3 mph N/A   Mostly Cloudy
4:35 AM 53.6 °F - 41.0 °F 62% 29.59 in 10.0 mi East 19.6 mph - N/A   Mostly Cloudy
4:55 AM 53.6 °F - 41.0 °F 62% 29.58 in 10.0 mi East 18.4 mph 27.6 mph N/A   Mostly Cloudy
5:15 AM 53.6 °F - 41.0 °F 62% 29.60 in 10.0 mi ENE 15.0 mph - N/A   Mostly Cloudy
5:35 AM 53.6 °F - 41.0 °F 62% 29.60 in 10.0 mi East 16.1 mph - N/A   Mostly Cloudy
5:55 AM 53.6 °F - 42.8 °F 67% 29.60 in 10.0 mi ENE 13.8 mph - N/A   Mostly Cloudy
6:15 AM 51.8 °F - 42.8 °F 71% 29.59 in 10.0 mi ENE 13.8 mph - N/A   Partly Cloudy
6:35 AM 51.8 °F - 42.8 °F 71% 29.60 in 10.0 mi ENE 15.0 mph - N/A   Clear
6:55 AM 51.8 °F - 42.8 °F 71% 29.60 in 10.0 mi ENE 13.8 mph 20.7 mph N/A   Clear
7:15 AM 53.6 °F - 42.8 °F 67% 29.60 in 3.0 mi East 17.3 mph 23.0 mph N/A   Haze
7:35 AM 53.6 °F - 42.8 °F 67% 29.60 in 10.0 mi ENE 20.7 mph - N/A   Clear
7:55 AM 55.4 °F - 42.8 °F 63% 29.61 in 9.0 mi East 15.0 mph 27.6 mph N/A   Clear
8:15 AM 55.4 °F - 42.8 °F 63% 29.62 in 9.0 mi East 19.6 mph - N/A   Clear
8:35 AM 57.2 °F - 44.6 °F 63% 29.62 in 10.0 mi East 20.7 mph 27.6 mph N/A   Clear
8:55 AM 57.2 °F - 44.6 °F 63% 29.62 in 10.0 mi East 18.4 mph 27.6 mph N/A   Clear
9:15 AM 59.0 °F - 44.6 °F 59% 29.62 in 10.0 mi East 20.7 mph 26.5 mph N/A   Clear
9:35 AM 60.8 °F - 44.6 °F 55% 29.61 in 9.0 mi East 21.9 mph - N/A   Clear
9:55 AM 60.8 °F - 46.4 °F 59% 29.60 in 7.0 mi East 17.3 mph 25.3 mph N/A   Partly Cloudy
10:15 AM 62.6 °F - 46.4 °F 55% 29.59 in 7.0 mi East 21.9 mph 27.6 mph N/A   Clear
10:35 AM 64.4 °F - 48.2 °F 56% 29.59 in 9.0 mi East 18.4 mph 27.6 mph N/A   Clear
10:55 AM 66.2 °F - 48.2 °F 52% 29.59 in 9.0 mi East 17.3 mph 25.3 mph N/A   Clear
11:15 AM 68.0 °F - 50.0 °F 52% 29.59 in 10.0 mi East 18.4 mph - N/A   Clear
11:35 AM 69.8 °F - 51.8 °F 53% 29.58 in 10.0 mi East 17.3 mph - N/A   Clear
11:55 AM 71.6 °F - 51.8 °F 50% 29.58 in 10.0 mi East 17.3 mph 25.3 mph N/A   Clear
12:15 PM 71.6 °F - 53.6 °F 53% 29.58 in 6.0 mi ESE 16.1 mph 21.9 mph N/A   Haze
12:35 PM 73.4 °F - 55.4 °F 53% 29.57 in 10.0 mi SE 16.1 mph 23.0 mph N/A   Clear
12:55 PM 77.0 °F - 55.4 °F 47% 29.56 in 10.0 mi ESE 17.3 mph - N/A   Partly Cloudy
1:15 PM 77.0 °F - 57.2 °F 50% 29.55 in 10.0 mi East 18.4 mph 26.5 mph N/A   Partly Cloudy
1:35 PM 78.8 °F - 57.2 °F 47% 29.55 in 10.0 mi ESE 15.0 mph 23.0 mph N/A   Clear
1:55 PM 80.6 °F 81.1 °F 59.0 °F 48% 29.54 in 10.0 mi SE 17.3 mph 24.2 mph N/A   Clear
2:15 PM 82.4 °F 82.5 °F 59.0 °F 45% 29.53 in 10.0 mi East 12.7 mph 25.3 mph N/A   Partly Cloudy
2:35 PM 84.2 °F 84.4 °F 60.8 °F 45% 29.53 in 10.0 mi SE 16.1 mph 24.2 mph N/A   Scattered Clouds
2:55 PM 86.0 °F 86.1 °F 60.8 °F 43% 29.52 in 10.0 mi SE 18.4 mph 24.2 mph N/A   Mostly Cloudy
3:15 PM 86.0 °F 84.9 °F 57.2 °F 37% 29.52 in 10.0 mi SSE 17.3 mph 24.2 mph N/A   Scattered Clouds
3:35 PM 87.8 °F 86.5 °F 57.2 °F 35% 29.52 in 10.0 mi SE 20.7 mph - N/A   Partly Cloudy
3:55 PM 86.0 °F 84.9 °F 57.2 °F 37% 29.51 in 10.0 mi SSE 17.3 mph - N/A   Mostly Cloudy
4:15 PM 87.8 °F 86.5 °F 57.2 °F 35% 29.50 in 10.0 mi South 15.0 mph 29.9 mph N/A   Scattered Clouds
4:35 PM 87.8 °F 86.5 °F 57.2 °F 35% 29.49 in 10.0 mi South 16.1 mph - N/A   Scattered Clouds
4:55 PM 87.8 °F 86.5 °F 57.2 °F 35% 29.49 in 10.0 mi SSW 15.0 mph 21.9 mph N/A   Partly Cloudy
5:15 PM 87.8 °F 86.5 °F 57.2 °F 35% 29.48 in 10.0 mi SSW 13.8 mph 19.6 mph N/A   Clear
5:35 PM 89.6 °F 88.1 °F 57.2 °F 33% 29.49 in 10.0 mi SW 15.0 mph - N/A   Scattered Clouds
5:55 PM 87.8 °F 86.1 °F 55.4 °F 33% 29.50 in 10.0 mi SSW 11.5 mph 18.4 mph N/A   Mostly Cloudy
6:15 PM 87.8 °F 86.5 °F 57.2 °F 35% 29.49 in 10.0 mi South 15.0 mph - N/A   Scattered Clouds
6:35 PM 86.0 °F 84.5 °F 55.4 °F 35% 29.49 in 10.0 mi SW 10.4 mph - N/A   Scattered Clouds
6:55 PM 86.0 °F 84.9 °F 57.2 °F 37% 29.49 in 10.0 mi WNW 16.1 mph - N/A   Clear
7:15 PM 77.0 °F - 59.0 °F 54% 29.50 in 9.0 mi North 31.1 mph 40.3 mph N/A   Clear
7:35 PM 71.6 °F - 53.6 °F 53% 29.51 in 10.0 mi North 24.2 mph 34.5 mph N/A   Clear
7:55 PM 69.8 °F - 53.6 °F 56% 29.52 in 10.0 mi NNE 21.9 mph 28.8 mph N/A   Clear
8:15 PM 68.0 °F - 51.8 °F 56% 29.52 in 10.0 mi NNE 27.6 mph 34.5 mph N/A   Clear
8:35 PM 66.2 °F - 51.8 °F 60% 29.52 in 10.0 mi NNE 25.3 mph 33.4 mph N/A   Clear
8:55 PM 64.4 °F - 51.8 °F 64% 29.52 in 10.0 mi NNE 24.2 mph 34.5 mph N/A   Clear
9:15 PM 64.4 °F - 51.8 °F 64% 29.52 in 10.0 mi NNE 25.3 mph 36.8 mph N/A   Clear
9:35 PM 62.6 °F - 51.8 °F 68% 29.54 in 10.0 mi NNE 23.0 mph 29.9 mph N/A   Clear
9:55 PM 62.6 °F - 50.0 °F 63% 29.54 in 10.0 mi NE 25.3 mph 32.2 mph N/A   Clear
10:15 PM 62.6 °F - 50.0 °F 63% 29.55 in 10.0 mi NNE 21.9 mph 35.7 mph N/A   Clear
10:35 PM 60.8 °F - 50.0 °F 68% 29.56 in 10.0 mi NE 19.6 mph 28.8 mph N/A   Clear
10:55 PM 60.8 °F - 50.0 °F 68% 29.56 in 10.0 mi NNE 23.0 mph 29.9 mph N/A   Clear
11:15 PM 59.0 °F - 50.0 °F 72% 29.54 in 10.0 mi NNE 24.2 mph 31.1 mph N/A   Clear
11:35 PM 59.0 °F - 50.0 °F 72% 29.56 in 10.0 mi NNE 20.7 mph 31.1 mph N/A   Clear
11:55 PM 59.0 °F - 50.0 °F 72% 29.62 in 10.0 mi NNE 15.0 mph 25.3 mph N/A   Partly Cloudy